Wahpeton, ND

7:23 PM CDT on September 29, 2016 (GMT -0500)
Stern

Weather History for KBWP - April, 2013

Change the Weather History Date:

Thursday, April 11, 2013

  Actual Average (KFFM) Record (KFFM)
Temperature  
Mean Temperature 30 °F -  
Max Temperature 33 °F 51 °F 84 °F (1968)
Min Temperature 28 °F 30 °F 11 °F (1957)
Degree Days  
Heating Degree Days 34    
Moisture  
Dew Point 26 °F    
Average Humidity 82    
Maximum Humidity 93    
Minimum Humidity 56    
Precipitation  
Precipitation 0.09 in - - ()
Sea Level Pressure  
Sea Level Pressure 29.84 in    
Wind  
Wind Speed 10 mph (NE)    
Max Wind Speed 20 mph    
Max Gust Speed 24 mph    
Visibility 7 miles    
Events      
Averages and records for this station are not official NWS values.
T = Trace of Precipitation, MM = Missing Value Source: NWS Daily Summary

Daily Weather History Graph

Daily Weather History Graph

Search for Another Location

Airport or City:

Trip Planner

Search our weather history database for the weather conditions in past years. The results will help you decide how hot, cold, wet, or windy it might be!

Date:

Astronomy

Apr. 11, 2013 Rise Set
Actual Time 6:46 AM CDT 8:08 PM CDT
Civil Twilight 6:15 AM CDT 8:40 PM CDT
Nautical Twilight 5:38 AM CDT 9:17 PM CDT
Astronomical Twilight 4:57 AM CDT 9:58 PM CDT
Moon 7:14 AM CDT (4/11) 9:51 PM CDT (4/11)
Length of Visible Light 14h 24m
Length of Day
13h 22m
New Moon, 2% of the Moon is Illuminated
Apr 11
New Moon
Apr 18
First Quarter
Apr 25
Full
May 2
Last Quarter
May 9
New

Hourly Weather History & Observations

Time (CDT) Temp. Windchill Dew Point Humidity Pressure Visibility Wind Dir Wind Speed Gust Speed Precip Events Conditions
12:15 AM 32.0 °F 24.8 °F 28.4 °F 87% 29.98 in 10.0 mi NNE 8.1 mph - N/A   Overcast
12:35 AM 32.0 °F 24.8 °F 28.4 °F 87% 29.98 in 10.0 mi NNE 8.1 mph - N/A   Overcast
12:55 AM 33.8 °F 27.0 °F 26.6 °F 75% 29.97 in 10.0 mi NE 8.1 mph - N/A   Overcast
1:15 AM 33.8 °F 29.6 °F 24.8 °F 70% 29.97 in 10.0 mi NE 4.6 mph - N/A   Overcast
1:35 AM 33.8 °F 27.7 °F 23.0 °F 65% 29.97 in 10.0 mi ENE 6.9 mph - N/A   Overcast
1:55 AM 33.8 °F 27.7 °F 21.2 °F 60% 29.97 in 10.0 mi East 6.9 mph - N/A   Overcast
2:15 AM 33.8 °F 28.6 °F 21.2 °F 60% 29.96 in 10.0 mi ENE 5.8 mph - N/A   Overcast
2:35 AM 33.8 °F 27.7 °F 19.4 °F 56% 29.94 in 10.0 mi NE 6.9 mph - N/A   Overcast
2:55 AM 33.8 °F 26.4 °F 19.4 °F 56% 29.92 in 10.0 mi NE 9.2 mph - N/A   Overcast
3:15 AM 33.8 °F 27.7 °F 21.2 °F 60% 29.91 in 10.0 mi NE 6.9 mph - N/A   Overcast
3:35 AM 33.8 °F 27.0 °F 21.2 °F 60% 29.92 in 10.0 mi NE 8.1 mph - N/A   Overcast
3:55 AM 33.8 °F 26.4 °F 21.2 °F 60% 29.91 in 10.0 mi NE 9.2 mph - N/A   Overcast
4:15 AM 32.0 °F 25.6 °F 23.0 °F 69% 29.91 in 10.0 mi East 6.9 mph - N/A   Overcast
4:35 AM 32.0 °F 20.1 °F 21.2 °F 64% 29.89 in 10.0 mi East 19.6 mph - N/A   Overcast
5:15 AM 32.0 °F 22.1 °F 23.0 °F 69% 29.87 in 10.0 mi East 13.8 mph 17.3 mph N/A   Overcast
5:35 AM 32.0 °F 21.6 °F 21.2 °F 64% 29.86 in 10.0 mi ENE 15.0 mph 24.2 mph N/A   Overcast
5:55 AM 30.2 °F 18.9 °F 23.0 °F 75% 29.85 in 7.0 mi East 16.1 mph 21.9 mph N/A   Overcast
6:15 AM 30.2 °F 20.8 °F 23.0 °F 75% 29.85 in 10.0 mi East 11.5 mph - N/A   Overcast
6:35 AM 30.2 °F 21.9 °F 24.8 °F 80% 29.84 in 10.0 mi ENE 9.2 mph - N/A   Overcast
6:55 AM 30.2 °F 18.5 °F 26.6 °F 86% 29.84 in 1.5 mi East 17.3 mph 21.9 mph N/A   Overcast
7:15 AM 30.2 °F 20.8 °F 26.6 °F 86% 29.84 in 1.0 mi ENE 11.5 mph - N/A   Overcast
7:35 AM 28.4 °F 19.1 °F 26.6 °F 93% 29.84 in 1.2 mi ENE 10.4 mph - N/A   Unknown
7:55 AM 28.4 °F 17.0 °F 26.6 °F 93% 29.83 in 1.8 mi ENE 15.0 mph - N/A   Overcast
8:15 AM 28.4 °F 19.1 °F 26.6 °F 93% 29.83 in 1.8 mi ENE 10.4 mph - N/A   Overcast
8:35 AM 30.2 °F 20.8 °F 26.6 °F 86% 29.83 in 1.0 mi ENE 11.5 mph 17.3 mph N/A   Overcast
8:55 AM 30.2 °F 20.2 °F 26.6 °F 86% 29.81 in 3.0 mi NE 12.7 mph 18.4 mph N/A   Unknown
9:15 AM 30.2 °F 19.8 °F 26.6 °F 86% 29.81 in 3.0 mi NE 13.8 mph - N/A   Unknown
9:35 AM 30.2 °F 20.8 °F 26.6 °F 86% 29.81 in 1.5 mi ENE 11.5 mph 18.4 mph N/A   Unknown
9:55 AM 30.2 °F 20.8 °F 26.6 °F 86% 29.81 in 0.5 mi ENE 11.5 mph 17.3 mph N/A   Unknown
10:15 AM 30.2 °F 21.3 °F 28.4 °F 93% 29.82 in 0.5 mi NE 10.4 mph - N/A   Unknown
10:35 AM 30.2 °F 21.3 °F 28.4 °F 93% 29.83 in 0.5 mi NE 10.4 mph - N/A   Overcast
10:55 AM 32.0 °F 22.5 °F 28.4 °F 87% 29.82 in 2.0 mi NNE 12.7 mph - N/A   Overcast
11:15 AM 32.0 °F 21.6 °F 28.4 °F 87% 29.81 in 5.0 mi NNE 15.0 mph - N/A   Unknown
11:35 AM 32.0 °F 21.6 °F 28.4 °F 87% 29.82 in 10.0 mi NE 15.0 mph 21.9 mph N/A   Overcast
11:55 AM 32.0 °F 21.6 °F 28.4 °F 87% 29.83 in 7.0 mi NE 15.0 mph - N/A   Overcast
12:15 PM 32.0 °F 23.0 °F 28.4 °F 87% 29.82 in 2.5 mi NE 11.5 mph - 0.02 in   Unknown
12:35 PM 32.0 °F 21.6 °F 28.4 °F 87% 29.82 in 3.0 mi ENE 15.0 mph - 0.04 in   Unknown
12:55 PM 32.0 °F 23.6 °F 28.4 °F 87% 29.81 in 5.0 mi ENE 10.4 mph 20.7 mph 0.06 in   Unknown
1:15 PM 32.0 °F 21.2 °F 28.4 °F 87% 29.80 in 10.0 mi ENE 16.1 mph 19.6 mph 0.01 in   Unknown
1:35 PM 32.0 °F 21.6 °F 26.6 °F 80% 29.80 in 10.0 mi ENE 15.0 mph 20.7 mph 0.02 in   Unknown
1:55 PM 32.0 °F 22.1 °F 28.4 °F 87% 29.79 in 10.0 mi ENE 13.8 mph - 0.03 in   Unknown
2:15 PM 32.0 °F 22.5 °F 28.4 °F 87% 29.79 in 3.0 mi ENE 12.7 mph - N/A   Unknown
2:35 PM 32.0 °F 21.2 °F 28.4 °F 87% 29.79 in 7.0 mi ENE 16.1 mph 19.6 mph N/A   Unknown
2:55 PM 32.0 °F 23.0 °F 28.4 °F 87% 29.79 in 7.0 mi ENE 11.5 mph 18.4 mph N/A   Unknown
3:15 PM 32.0 °F 22.1 °F 28.4 °F 87% 29.79 in 10.0 mi ENE 13.8 mph 20.7 mph N/A   Unknown
3:35 PM 32.0 °F 23.6 °F 28.4 °F 87% 29.78 in 10.0 mi ENE 10.4 mph 17.3 mph N/A   Unknown
3:55 PM 32.0 °F 22.1 °F 26.6 °F 80% 29.79 in 10.0 mi ENE 13.8 mph 18.4 mph N/A   Unknown
4:15 PM 32.0 °F 23.0 °F 26.6 °F 80% 29.79 in 7.0 mi ENE 11.5 mph - N/A   Unknown
4:35 PM 32.0 °F 22.1 °F 26.6 °F 80% 29.79 in 10.0 mi East 13.8 mph 18.4 mph N/A   Overcast
4:55 PM 32.0 °F 23.0 °F 28.4 °F 87% 29.79 in 10.0 mi ENE 11.5 mph - N/A   Overcast
5:15 PM 32.0 °F 23.6 °F 28.4 °F 87% 29.80 in 7.0 mi ENE 10.4 mph - N/A   Overcast
5:35 PM 32.0 °F 22.1 °F 28.4 °F 87% 29.79 in 10.0 mi East 13.8 mph 17.3 mph N/A   Overcast
5:55 PM 32.0 °F 23.6 °F 28.4 °F 87% 29.80 in 4.0 mi NE 10.4 mph - N/A   Overcast
6:15 PM 32.0 °F 22.5 °F 28.4 °F 87% 29.80 in 10.0 mi ENE 12.7 mph - N/A   Unknown
6:35 PM 32.0 °F 24.8 °F 28.4 °F 87% 29.81 in 10.0 mi ENE 8.1 mph - N/A   Unknown
6:55 PM 32.0 °F 22.1 °F 28.4 °F 87% 29.81 in 10.0 mi ENE 13.8 mph - N/A   Unknown
7:15 PM 32.0 °F 24.8 °F 28.4 °F 87% 29.81 in 5.0 mi ENE 8.1 mph - N/A   Unknown
7:35 PM 32.0 °F 24.8 °F 28.4 °F 87% 29.81 in 4.0 mi NE 8.1 mph - N/A   Unknown
7:55 PM 32.0 °F 25.6 °F 28.4 °F 87% 29.81 in 1.8 mi ENE 6.9 mph - N/A   Overcast
8:15 PM 30.2 °F 23.4 °F 28.4 °F 93% 29.81 in 1.0 mi NE 6.9 mph - N/A   Overcast
8:35 PM 30.2 °F 22.6 °F 28.4 °F 93% 29.81 in 3.0 mi NNE 8.1 mph - N/A   Overcast
8:55 PM 30.2 °F 22.6 °F 28.4 °F 93% 29.81 in 10.0 mi NNE 8.1 mph - N/A   Overcast
9:15 PM 30.2 °F 22.6 °F 28.4 °F 93% 29.81 in 10.0 mi NNE 8.1 mph - N/A   Overcast
9:35 PM 30.2 °F 21.3 °F 28.4 °F 93% 29.81 in 10.0 mi NNE 10.4 mph - N/A   Overcast
9:55 PM 30.2 °F 21.9 °F 28.4 °F 93% 29.81 in 10.0 mi NNE 9.2 mph - N/A   Overcast
10:15 PM 30.2 °F 21.9 °F 28.4 °F 93% 29.82 in 10.0 mi NNE 9.2 mph - N/A   Overcast
10:35 PM 30.2 °F 21.9 °F 26.6 °F 86% 29.82 in 10.0 mi NNE 9.2 mph - N/A   Overcast
10:55 PM 30.2 °F 21.9 °F 26.6 °F 86% 29.82 in 10.0 mi NNE 9.2 mph - N/A   Overcast
11:15 PM 30.2 °F 21.9 °F 26.6 °F 86% 29.82 in 10.0 mi NNE 9.2 mph - N/A   Overcast
11:35 PM 30.2 °F 21.9 °F 26.6 °F 86% 29.82 in 10.0 mi North 9.2 mph - N/A   Overcast
11:55 PM 30.2 °F 21.9 °F 26.6 °F 86% 29.83 in 10.0 mi North 9.2 mph - N/A   Overcast